| time (UTC) | temp F | wind direction | speed MPH | gust MPH | rain 1hr in | rain 24hr in | rain mn in | humidity % | barometer mb |
| 20260902194244 | 95 | 277 | 2.0 | 9.0 | 0.00 | 0.00 | 0.00 | 63 | 1012.3 |
| 20260902193740 | 95 | 227 | 2.0 | 5.0 | 0.00 | 0.00 | 0.00 | 63 | 1012.5 |
| 20260902193240 | 95 | 154 | 2.0 | 5.0 | 0.00 | 0.00 | 0.00 | 65 | 1012.5 |
| 20260902192745 | 95 | 355 | 2.0 | 8.0 | 0.00 | 0.00 | 0.00 | 61 | 1012.6 |
| 20260902192741 | 95 | 161 | 2.0 | 8.0 | 0.00 | 0.00 | 0.00 | 64 | 1012.5 |
| 20260902191737 | 94 | 122 | 2.0 | 8.0 | 0.00 | 0.00 | 0.00 | 61 | 1012.6 |
| 20260902191235 | 94 | 148 | 2.0 | 8.0 | 0.00 | 0.00 | 0.00 | 65 | 1012.6 |
| 20260902190735 | 93 | 30 | 2.0 | 4.0 | 0.00 | 0.00 | 0.00 | 65 | 1012.6 |
| 20260902190232 | 93 | 243 | 2.0 | 8.0 | 0.00 | 0.00 | 0.00 | 68 | 1012.7 |
| 20260902185733 | 93 | 281 | 2.0 | 8.0 | 0.00 | 0.00 | 0.00 | 64 | 1012.8 |
| 20260902185504 | 94 | 262 | 2.0 | 4.0 | 0.00 | 0.00 | 0.00 | 64 | 1012.9 |
| 20260902184730 | 94 | 205 | 2.0 | 4.0 | 0.00 | 0.00 | 0.00 | 64 | 1013.0 |
| 20260902184232 | 94 | 202 | 2.0 | 8.0 | 0.00 | 0.00 | 0.00 | 65 | 1013.1 |
| 20260902183959 | 94 | 238 | 3.0 | 8.0 | 0.00 | 0.00 | 0.00 | 65 | 1013.1 |
| 20260902183227 | 94 | 153 | 2.0 | 7.0 | 0.00 | 0.00 | 0.00 | 65 | 1013.3 |
| 20260902182728 | 94 | 269 | 2.0 | 10.0 | 0.00 | 0.00 | 0.00 | 66 | 1013.4 |
| 20260902182224 | 93 | 132 | 2.0 | 10.0 | 0.00 | 0.00 | 0.00 | 67 | 1013.5 |
| 20260902181726 | 92 | 159 | 3.0 | 10.0 | 0.00 | 0.00 | 0.00 | 69 | 1013.5 |
| 20260902181451 | 92 | 255 | 3.0 | 10.0 | 0.00 | 0.00 | 0.00 | 68 | 1013.7 |
| 20260902180720 | 92 | 308 | 2.0 | 10.0 | 0.00 | 0.00 | 0.00 | 68 | 1013.8 |
| 20260902180220 | 92 | 207 | 2.0 | 10.0 | 0.00 | 0.00 | 0.00 | 68 | 1013.9 |
| 20260902175718 | 91 | 13 | 2.0 | 9.0 | 0.00 | 0.00 | 0.00 | 70 | 1014.0 |
| 20260902175219 | 91 | 265 | 2.0 | 5.0 | 0.00 | 0.00 | 0.00 | 70 | 1014.0 |
| 20260902174716 | 91 | 183 | 3.0 | 10.0 | 0.00 | 0.00 | 0.00 | 73 | 1014.1 |
| 20260902174216 | 91 | 251 | 3.0 | 10.0 | 0.00 | 0.00 | 0.00 | 72 | 1014.3 |
| 20260902173716 | 91 | 208 | 2.0 | 7.0 | 0.00 | 0.00 | 0.00 | 72 | 1014.3 |
| 20260902173216 | 90 | 45 | 2.0 | 5.0 | 0.00 | 0.00 | 0.00 | 74 | 1014.4 |
| 20260902172715 | 90 | 264 | 2.0 | 5.0 | 0.00 | 0.00 | 0.00 | 73 | 1014.5 |
| 20260902172214 | 90 | 142 | 2.0 | 6.0 | 0.00 | 0.00 | 0.00 | 75 | 1014.6 |
| 20260902171717 | 89 | 259 | 2.0 | 6.0 | 0.00 | 0.00 | 0.00 | 75 | 1014.6 |
| 20260902171446 | 89 | 186 | 2.0 | 7.0 | 0.00 | 0.00 | 0.00 | 75 | 1014.7 |
| 20260902170713 | 89 | 267 | 2.0 | 7.0 | 0.00 | 0.00 | 0.00 | 75 | 1014.8 |
| 20260902170208 | 89 | 254 | 1.0 | 5.0 | 0.00 | 0.00 | 0.00 | 77 | 1014.8 |
| 20260902165709 | 88 | 241 | 1.0 | 5.0 | 0.00 | 0.00 | 0.00 | 77 | 1014.9 |
| 20260902165208 | 89 | 180 | 1.0 | 5.0 | 0.00 | 0.00 | 0.00 | 77 | 1015.0 |
| 20260902164706 | 89 | 191 | 2.0 | 10.0 | 0.00 | 0.00 | 0.00 | 76 | 1014.9 |
| 20260902164207 | 89 | 220 | 2.0 | 10.0 | 0.00 | 0.00 | 0.00 | 77 | 1015.0 |
| 20260902163706 | 89 | 165 | 3.0 | 10.0 | 0.00 | 0.00 | 0.00 | 77 | 1015.0 |
| 20260902163206 | 89 | 260 | 3.0 | 10.0 | 0.00 | 0.00 | 0.00 | 77 | 1015.1 |
| 20260902162939 | 88 | 263 | 3.0 | 12.0 | 0.00 | 0.00 | 0.00 | 78 | 1015.1 |
| 20260902162827 | 88 | 43 | 3.0 | 12.0 | 0.00 | 0.00 | 0.00 | 79 | 1015.2 |
| 20260902161706 | 87 | 240 | 3.0 | 12.0 | 0.00 | 0.00 | 0.00 | 80 | 1015.1 |
| 20260902161208 | 87 | 287 | 3.0 | 12.0 | 0.00 | 0.00 | 0.00 | 81 | 1015.1 |
| 20260902160706 | 85 | 222 | 3.0 | 11.0 | 0.00 | 0.00 | 0.00 | 83 | 1015.2 |
| 20260902160439 | 85 | 241 | 3.0 | 11.0 | 0.00 | 0.00 | 0.00 | 83 | 1015.2 |
| 20260902155937 | 85 | 250 | 4.0 | 12.0 | 0.00 | 0.00 | 0.00 | 84 | 1015.2 |
| 20260902155208 | 85 | 251 | 3.0 | 12.0 | 0.00 | 0.00 | 0.00 | 84 | 1015.1 |
| 20260902154937 | 84 | 244 | 1.0 | 8.0 | 0.00 | 0.00 | 0.00 | 85 | 1015.1 |
| 20260902154207 | 84 | 252 | 2.0 | 5.0 | 0.00 | 0.00 | 0.00 | 85 | 1015.2 |
| 20260902153706 | 84 | 0 | 2.0 | 10.0 | 0.00 | 0.00 | 0.00 | 85 | 1015.1 |
| 20260902153206 | 84 | 0 | 2.0 | 10.0 | 0.00 | 0.00 | 0.00 | 85 | 1015.1 |
| 20260902152707 | 84 | 0 | 2.0 | 10.0 | 0.00 | 0.00 | 0.00 | 86 | 1015.0 |
| 20260902152205 | 84 | 0 | 2.0 | 10.0 | 0.00 | 0.00 | 0.00 | 86 | 1015.0 |
| 20260902151706 | 84 | 0 | 2.0 | 10.0 | 0.00 | 0.00 | 0.00 | 86 | 1015.0 |
| 20260902151204 | 83 | 0 | 2.0 | 10.0 | 0.00 | 0.00 | 0.00 | 86 | 1014.9 |
| 20260902150706 | 83 | 0 | 3.0 | 9.0 | 0.00 | 0.00 | 0.00 | 86 | 1014.9 |
| 20260902150702 | 83 | 0 | 2.0 | 9.0 | 0.00 | 0.00 | 0.00 | 86 | 1014.9 |
| 20260902145701 | 83 | 0 | 2.0 | 9.0 | 0.00 | 0.00 | 0.00 | 87 | 1015.0 |
| 20260902145203 | 83 | 0 | 3.0 | 9.0 | 0.00 | 0.00 | 0.00 | 87 | 1014.9 |
| 20260902144708 | 83 | 0 | 3.0 | 9.0 | 0.00 | 0.00 | 0.00 | 87 | 1014.9 |
| 20260902144203 | 83 | 0 | 2.0 | 9.0 | 0.00 | 0.00 | 0.00 | 87 | 1014.9 |
| 20260902143702 | 83 | 0 | 2.0 | 9.0 | 0.00 | 0.00 | 0.00 | 87 | 1014.9 |
| 20260902143157 | 83 | 0 | 2.0 | 10.0 | 0.00 | 0.00 | 0.00 | 87 | 1014.8 |
| 20260902142656 | 83 | 0 | 1.0 | 10.0 | 0.00 | 0.00 | 0.00 | 87 | 1014.8 |
| 20260902142156 | 83 | 0 | 1.0 | 10.0 | 0.00 | 0.00 | 0.00 | 87 | 1014.9 |
| 20260902141654 | 83 | 0 | 2.0 | 10.0 | 0.00 | 0.00 | 0.00 | 87 | 1014.9 |
| 20260902141156 | 83 | 0 | 1.0 | 5.0 | 0.00 | 0.00 | 0.00 | 87 | 1014.9 |
| 20260902140655 | 82 | 0 | 1.0 | 5.0 | 0.00 | 0.00 | 0.00 | 87 | 1014.8 |
| 20260902140155 | 82 | 0 | 1.0 | 5.0 | 0.00 | 0.00 | 0.00 | 87 | 1014.8 |
| 20260902135655 | 82 | 0 | 2.0 | 6.0 | 0.00 | 0.00 | 0.00 | 87 | 1014.8 |
| 20260902135155 | 82 | 0 | 2.0 | 6.0 | 0.00 | 0.00 | 0.00 | 87 | 1014.8 |
| 20260902134654 | 82 | 0 | 1.0 | 6.0 | 0.00 | 0.00 | 0.00 | 87 | 1014.8 |
| 20260902134152 | 82 | 0 | 2.0 | 10.0 | 0.00 | 0.00 | 0.00 | 87 | 1014.7 |
| 20260902133652 | 82 | 0 | 2.0 | 10.0 | 0.00 | 0.00 | 0.00 | 87 | 1014.8 |
| 20260902133151 | 82 | 0 | 2.0 | 9.0 | 0.00 | 0.00 | 0.00 | 87 | 1014.9 |
| 20260902132650 | 82 | 0 | 2.0 | 6.0 | 0.00 | 0.00 | 0.00 | 87 | 1014.8 |
| 20260902132150 | 82 | 0 | 1.0 | 4.0 | 0.00 | 0.00 | 0.00 | 87 | 1014.8 |
| 20260902131650 | 82 | 0 | 1.0 | 4.0 | 0.00 | 0.00 | 0.00 | 87 | 1014.6 |
| 20260902131151 | 82 | 0 | 1.0 | 4.0 | 0.00 | 0.00 | 0.00 | 87 | 1014.5 |
| 20260902130646 | 82 | 0 | 1.0 | 4.0 | 0.00 | 0.00 | 0.00 | 87 | 1014.5 |
| 20260902130146 | 82 | 0 | 1.0 | 4.0 | 0.00 | 0.00 | 0.00 | 87 | 1014.5 |
| 20260902125646 | 82 | 0 | 1.0 | 4.0 | 0.00 | 0.00 | 0.00 | 87 | 1014.4 |
| 20260902125144 | 82 | 0 | 1.0 | 4.0 | 0.00 | 0.00 | 0.00 | 87 | 1014.4 |
| 20260902124643 | 82 | 0 | 1.0 | 4.0 | 0.00 | 0.00 | 0.00 | 87 | 1014.3 |
| 20260902124145 | 82 | 0 | 1.0 | 5.0 | 0.00 | 0.00 | 0.00 | 87 | 1014.2 |
| 20260902123646 | 82 | 0 | 1.0 | 5.0 | 0.00 | 0.00 | 0.00 | 87 | 1014.1 |
| 20260902123415 | 82 | 0 | 1.0 | 5.0 | 0.00 | 0.00 | 0.00 | 86 | 1013.9 |
| 20260902122646 | 82 | 0 | 1.0 | 5.0 | 0.00 | 0.00 | 0.00 | 86 | 1013.8 |
| 20260902122145 | 82 | 0 | 1.0 | 5.0 | 0.00 | 0.00 | 0.00 | 86 | 1013.6 |
| 20260902121643 | 82 | 0 | 1.0 | 5.0 | 0.00 | 0.00 | 0.00 | 86 | 1013.4 |
| 20260902121146 | 82 | 0 | 1.0 | 3.0 | 0.00 | 0.00 | 0.00 | 86 | 1013.3 |
| 20260902121141 | 82 | 0 | 1.0 | 3.0 | 0.00 | 0.00 | 0.00 | 86 | 1013.4 |
| 20260902120139 | 82 | 0 | 1.0 | 2.0 | 0.00 | 0.00 | 0.00 | 86 | 1013.2 |
| 20260902115640 | 82 | 0 | 1.0 | 4.0 | 0.00 | 0.00 | 0.00 | 86 | 1013.4 |
| 20260902115407 | 82 | 0 | 1.0 | 4.0 | 0.00 | 0.00 | 0.00 | 86 | 1013.4 |
| 20260902114633 | 82 | 0 | 1.0 | 4.0 | 0.00 | 0.00 | 0.00 | 86 | 1013.4 |
| 20260902114136 | 82 | 0 | 1.0 | 4.0 | 0.00 | 0.00 | 0.00 | 86 | 1013.4 |
| 20260902113634 | 82 | 0 | 1.0 | 4.0 | 0.00 | 0.00 | 0.00 | 86 | 1013.4 |
| 20260902113134 | 82 | 0 | 1.0 | 6.0 | 0.00 | 0.00 | 0.00 | 86 | 1013.3 |
| 20260902112633 | 82 | 0 | 0.0 | 6.0 | 0.00 | 0.00 | 0.00 | 86 | 1013.4 |
| 20260902112133 | 82 | 0 | 0.0 | 6.0 | 0.00 | 0.00 | 0.00 | 86 | 1013.4 |
| 20260902111631 | 82 | 0 | 1.0 | 6.0 | 0.00 | 0.00 | 0.00 | 86 | 1013.3 |
| 20260902111129 | 82 | 0 | 1.0 | 5.0 | 0.00 | 0.00 | 0.00 | 86 | 1013.4 |
| 20260902110626 | 82 | 0 | 1.0 | 4.0 | 0.00 | 0.00 | 0.00 | 86 | 1013.4 |
| 20260902110125 | 82 | 0 | 2.0 | 4.0 | 0.00 | 0.00 | 0.00 | 85 | 1013.4 |
| 20260902105625 | 82 | 0 | 1.0 | 4.0 | 0.00 | 0.00 | 0.00 | 85 | 1013.4 |
| 20260902105122 | 82 | 0 | 1.0 | 4.0 | 0.00 | 0.00 | 0.00 | 85 | 1013.5 |
| 20260902104618 | 82 | 0 | 0.0 | 4.0 | 0.00 | 0.00 | 0.00 | 85 | 1013.6 |
| 20260902104118 | 82 | 0 | 1.0 | 4.0 | 0.00 | 0.00 | 0.00 | 85 | 1013.5 |
| 20260902103846 | 82 | 0 | 1.0 | 4.0 | 0.00 | 0.00 | 0.00 | 85 | 1013.5 |
| 20260902103114 | 82 | 0 | 1.0 | 4.0 | 0.00 | 0.00 | 0.00 | 85 | 1013.5 |
| 20260902102612 | 82 | 0 | 1.0 | 5.0 | 0.00 | 0.00 | 0.00 | 85 | 1013.4 |
| 20260902102341 | 82 | 0 | 1.0 | 5.0 | 0.00 | 0.00 | 0.00 | 85 | 1013.3 |
| 20260902101609 | 82 | 0 | 1.0 | 5.0 | 0.00 | 0.00 | 0.00 | 85 | 1013.3 |
| 20260902101105 | 82 | 0 | 1.0 | 5.0 | 0.00 | 0.00 | 0.00 | 85 | 1013.2 |
| 20260902100606 | 82 | 0 | 1.0 | 5.0 | 0.00 | 0.00 | 0.00 | 85 | 1013.1 |
| 20260902100105 | 82 | 0 | 1.0 | 5.0 | 0.00 | 0.00 | 0.00 | 85 | 1013.1 |
| 20260902095607 | 82 | 0 | 1.0 | 8.0 | 0.00 | 0.00 | 0.00 | 85 | 1013.2 |
| 20260902095602 | 82 | 0 | 1.0 | 8.0 | 0.00 | 0.00 | 0.00 | 85 | 1013.1 |
| 20260902094603 | 82 | 0 | 1.0 | 8.0 | 0.00 | 0.00 | 0.00 | 85 | 1013.2 |
| 20260902094101 | 82 | 0 | 1.0 | 8.0 | 0.00 | 0.00 | 0.00 | 85 | 1013.2 |
| 20260902093600 | 82 | 0 | 1.0 | 4.0 | 0.00 | 0.00 | 0.00 | 85 | 1013.3 |
| 20260902093057 | 83 | 0 | 1.0 | 4.0 | 0.00 | 0.00 | 0.00 | 84 | 1013.3 |
| 20260902092555 | 83 | 0 | 2.0 | 4.0 | 0.00 | 0.00 | 0.00 | 84 | 1013.2 |
| 20260902092325 | 83 | 0 | 2.0 | 4.0 | 0.00 | 0.00 | 0.00 | 84 | 1013.3 |
| 20260902091556 | 83 | 0 | 1.0 | 5.0 | 0.00 | 0.00 | 0.00 | 84 | 1013.2 |
| 20260902091326 | 83 | 0 | 1.0 | 5.0 | 0.00 | 0.00 | 0.00 | 84 | 1013.2 |
| 20260902090551 | 83 | 0 | 2.0 | 8.0 | 0.00 | 0.00 | 0.00 | 84 | 1013.2 |
| 20260902090050 | 83 | 0 | 1.0 | 8.0 | 0.00 | 0.00 | 0.00 | 84 | 1013.1 |
| 20260902085550 | 83 | 0 | 1.0 | 6.0 | 0.00 | 0.00 | 0.00 | 84 | 1013.2 |
| 20260902085047 | 83 | 0 | 1.0 | 6.0 | 0.00 | 0.00 | 0.00 | 84 | 1013.2 |
| 20260902084548 | 83 | 0 | 1.0 | 6.0 | 0.00 | 0.00 | 0.00 | 84 | 1013.2 |
| 20260902084048 | 83 | 0 | 1.0 | 6.0 | 0.00 | 0.00 | 0.00 | 84 | 1013.2 |
| 20260902083542 | 83 | 0 | 1.0 | 6.0 | 0.00 | 0.00 | 0.00 | 84 | 1013.2 |
| 20260902083042 | 83 | 0 | 1.0 | 6.0 | 0.00 | 0.00 | 0.00 | 84 | 1013.3 |
| 20260902082540 | 83 | 0 | 1.0 | 5.0 | 0.00 | 0.00 | 0.00 | 84 | 1013.2 |
| 20260902082040 | 83 | 0 | 1.0 | 4.0 | 0.00 | 0.00 | 0.00 | 84 | 1013.2 |
| 20260902081540 | 83 | 0 | 1.0 | 6.0 | 0.00 | 0.00 | 0.00 | 84 | 1013.3 |
| 20260902081042 | 83 | 0 | 1.0 | 5.0 | 0.00 | 0.00 | 0.00 | 84 | 1013.3 |
| 20260902080539 | 83 | 0 | 1.0 | 4.0 | 0.00 | 0.00 | 0.00 | 84 | 1013.3 |
| 20260902080035 | 83 | 0 | 1.0 | 5.0 | 0.00 | 0.00 | 0.00 | 84 | 1013.2 |
| 20260902075536 | 83 | 0 | 1.0 | 8.0 | 0.00 | 0.00 | 0.00 | 84 | 1013.3 |
| 20260902075036 | 83 | 0 | 2.0 | 8.0 | 0.00 | 0.00 | 0.00 | 84 | 1013.3 |
| 20260902074530 | 83 | 0 | 1.0 | 6.0 | 0.00 | 0.00 | 0.00 | 84 | 1013.3 |
| 20260902074033 | 83 | 0 | 1.0 | 6.0 | 0.00 | 0.00 | 0.00 | 84 | 1013.3 |
| 20260902073532 | 83 | 0 | 2.0 | 8.0 | 0.00 | 0.00 | 0.00 | 84 | 1013.3 |
| 20260902073031 | 83 | 0 | 2.0 | 9.0 | 0.00 | 0.00 | 0.00 | 84 | 1013.3 |
| 20260902072531 | 83 | 0 | 2.0 | 9.0 | 0.00 | 0.00 | 0.00 | 84 | 1013.4 |
| 20260902072302 | 83 | 0 | 2.0 | 9.0 | 0.00 | 0.00 | 0.00 | 84 | 1013.3 |
| 20260902071530 | 83 | 0 | 1.0 | 9.0 | 0.00 | 0.00 | 0.00 | 84 | 1013.3 |
| 20260902071030 | 82 | 0 | 1.0 | 9.0 | 0.00 | 0.00 | 0.00 | 84 | 1013.3 |
| 20260902070533 | 82 | 0 | 1.0 | 9.0 | 0.00 | 0.00 | 0.00 | 83 | 1013.3 |
| 20260902070300 | 82 | 0 | 1.0 | 4.0 | 0.00 | 0.00 | 0.00 | 83 | 1013.3 |
| 20260902070148 | 82 | 0 | 1.0 | 3.0 | 0.00 | 0.00 | 0.00 | 83 | 1013.3 |
| 20260902065033 | 82 | 0 | 1.0 | 3.0 | 0.00 | 0.00 | 0.00 | 83 | 1013.3 |
| 20260902064531 | 82 | 0 | 1.0 | 6.0 | 0.00 | 0.00 | 0.00 | 83 | 1013.2 |
| 20260902064028 | 82 | 0 | 0.0 | 6.0 | 0.00 | 0.00 | 0.00 | 83 | 1013.2 |
| 20260902063524 | 82 | 0 | 1.0 | 3.0 | 0.00 | 0.00 | 0.00 | 83 | 1013.2 |
| 20260902063023 | 82 | 0 | 1.0 | 3.0 | 0.00 | 0.00 | 0.00 | 83 | 1013.2 |
| 20260902062524 | 81 | 0 | 0.0 | 3.0 | 0.00 | 0.00 | 0.00 | 83 | 1013.2 |
| 20260902062254 | 81 | 0 | 0.0 | 3.0 | 0.00 | 0.00 | 0.00 | 83 | 1013.1 |
| 20260902061756 | 81 | 0 | 0.0 | 3.0 | 0.00 | 0.00 | 0.00 | 82 | 1013.1 |
| 20260902061024 | 81 | 0 | 0.0 | 3.0 | 0.00 | 0.00 | 0.00 | 82 | 1013.1 |
| 20260902060524 | 81 | 0 | 0.0 | 4.0 | 0.00 | 0.00 | 0.00 | 82 | 1013.0 |
| 20260902060258 | 81 | 0 | 0.0 | 4.0 | 0.00 | 0.00 | 0.00 | 82 | 1013.0 |
| 20260902055750 | 81 | 0 | 0.0 | 2.0 | 0.00 | 0.00 | 0.00 | 82 | 1013.1 |
| 20260902055023 | 80 | 0 | 0.0 | 2.0 | 0.00 | 0.00 | 0.00 | 82 | 1013.0 |
| 20260902054521 | 81 | 0 | 0.0 | 2.0 | 0.00 | 0.00 | 0.00 | 82 | 1013.0 |
| 20260902054020 | 81 | 0 | 0.0 | 0.0 | 0.00 | 0.00 | 0.00 | 82 | 1013.0 |
| 20260902053520 | 81 | 0 | 0.0 | 0.0 | 0.00 | 0.00 | 0.00 | 82 | 1013.0 |
| 20260902053252 | 81 | 0 | 0.0 | 0.0 | 0.00 | 0.00 | 0.00 | 82 | 1013.2 |
| 20260902052520 | 81 | 0 | 0.0 | 0.0 | 0.00 | 0.00 | 0.00 | 82 | 1013.3 |
| 20260902052026 | 81 | 0 | 0.0 | 0.0 | 0.00 | 0.00 | 0.00 | 82 | 1013.3 |
| 20260902052022 | 81 | 0 | 0.0 | 0.0 | 0.00 | 0.00 | 0.00 | 82 | 1013.3 |
| 20260902051018 | 81 | 0 | 0.0 | 0.0 | 0.00 | 0.00 | 0.00 | 82 | 1013.3 |
| 20260902050516 | 81 | 0 | 0.0 | 0.0 | 0.00 | 0.00 | 0.00 | 82 | 1013.3 |
| 20260902050016 | 81 | 0 | 0.0 | 0.0 | 0.00 | 0.00 | 0.00 | 82 | 1013.3 |
| 20260902045516 | 81 | 0 | 0.0 | 0.0 | 0.00 | 0.00 | 0.00 | 82 | 1013.3 |
| 20260902045016 | 81 | 0 | 0.0 | 0.0 | 0.00 | 0.00 | 0.00 | 82 | 1013.3 |
| 20260902044517 | 81 | 0 | 0.0 | 0.0 | 0.00 | 0.00 | 0.00 | 81 | 1013.4 |
| 20260902044248 | 81 | 0 | 0.0 | 0.0 | 0.00 | 0.00 | 0.00 | 81 | 1013.5 |
| 20260902044133 | 81 | 0 | 0.0 | 0.0 | 0.00 | 0.00 | 0.00 | 81 | 1013.5 |
| 20260902043016 | 81 | 0 | 0.0 | 0.0 | 0.00 | 0.00 | 0.00 | 81 | 1013.4 |
| 20260902042518 | 81 | 0 | 0.0 | 0.0 | 0.00 | 0.00 | 0.00 | 81 | 1013.4 |
| 20260902042015 | 81 | 0 | 0.0 | 0.0 | 0.00 | 0.00 | 0.00 | 81 | 1013.4 |
| 20260902041516 | 81 | 0 | 0.0 | 0.0 | 0.00 | 0.00 | 0.00 | 81 | 1013.4 |
| 20260902041016 | 81 | 0 | 0.0 | 0.0 | 0.00 | 0.00 | 0.00 | 81 | 1013.6 |
| 20260902040515 | 81 | 0 | 0.0 | 0.0 | 0.00 | 0.00 | 0.00 | 81 | 1013.4 |
| 20260902040013 | 81 | 0 | 0.0 | 0.0 | 0.00 | 0.00 | 0.00 | 81 | 1013.4 |
| 20260902035744 | 81 | 0 | 0.0 | 0.0 | 0.00 | 0.00 | 0.00 | 81 | 1013.5 |
| 20260902035014 | 81 | 0 | 0.0 | 0.0 | 0.00 | 0.00 | 0.00 | 81 | 1013.6 |
| 20260902034516 | 81 | 0 | 0.0 | 0.0 | 0.00 | 0.00 | 0.00 | 81 | 1013.7 |
| 20260902034012 | 81 | 0 | 0.0 | 0.0 | 0.00 | 0.00 | 0.00 | 81 | 1013.7 |
| 20260902033511 | 81 | 0 | 0.0 | 0.0 | 0.00 | 0.00 | 0.00 | 81 | 1013.7 |
| 20260902033010 | 81 | 0 | 0.0 | 0.0 | 0.00 | 0.00 | 0.00 | 80 | 1013.6 |
| 20260902032512 | 81 | 0 | 0.0 | 0.0 | 0.00 | 0.00 | 0.00 | 81 | 1013.6 |
| 20260902032013 | 81 | 0 | 0.0 | 0.0 | 0.00 | 0.00 | 0.00 | 81 | 1013.6 |
| 20260902031741 | 82 | 0 | 0.0 | 0.0 | 0.00 | 0.00 | 0.00 | 81 | 1013.5 |
| 20260902031017 | 82 | 0 | 0.0 | 0.0 | 0.00 | 0.00 | 0.00 | 81 | 1013.4 |
| 20260902030507 | 82 | 0 | 0.0 | 0.0 | 0.00 | 0.00 | 0.00 | 81 | 1013.4 |
| 20260902030005 | 82 | 0 | 0.0 | 0.0 | 0.00 | 0.00 | 0.00 | 80 | 1013.3 |
| 20260902025508 | 82 | 0 | 0.0 | 0.0 | 0.00 | 0.00 | 0.00 | 80 | 1013.2 |
| 20260902025005 | 82 | 0 | 0.0 | 0.0 | 0.00 | 0.00 | 0.00 | 80 | 1013.2 |
| 20260902024505 | 82 | 0 | 0.0 | 0.0 | 0.00 | 0.00 | 0.00 | 80 | 1013.1 |
| 20260902024010 | 82 | 0 | 0.0 | 0.0 | 0.00 | 0.00 | 0.00 | 80 | 1013.0 |
| 20260902024004 | 82 | 0 | 0.0 | 0.0 | 0.00 | 0.00 | 0.00 | 80 | 1013.0 |
| 20260902023004 | 82 | 0 | 0.0 | 0.0 | 0.00 | 0.00 | 0.00 | 80 | 1013.0 |
| 20260902022503 | 82 | 0 | 0.0 | 0.0 | 0.00 | 0.00 | 0.00 | 80 | 1012.8 |
| 20260902022003 | 82 | 0 | 0.0 | 0.0 | 0.00 | 0.00 | 0.00 | 80 | 1012.7 |
| 20260902021454 | 82 | 0 | 0.0 | 0.0 | 0.00 | 0.00 | 0.00 | 80 | 1012.7 |
| 20260902020955 | 82 | 0 | 0.0 | 0.0 | 0.00 | 0.00 | 0.00 | 80 | 1012.8 |
| 20260902020448 | 82 | 0 | 0.0 | 0.0 | 0.00 | 0.00 | 0.00 | 80 | 1012.7 |
| 20260902015947 | 82 | 0 | 0.0 | 0.0 | 0.00 | 0.00 | 0.00 | 79 | 1012.5 |
| 20260902015717 | 82 | 0 | 0.0 | 0.0 | 0.00 | 0.00 | 0.00 | 79 | 1012.4 |
| 20260902014945 | 83 | 0 | 0.0 | 0.0 | 0.00 | 0.00 | 0.00 | 79 | 1012.3 |
| 20260902014718 | 83 | 0 | 0.0 | 0.0 | 0.00 | 0.00 | 0.00 | 79 | 1012.1 |
| 20260902014443 | 83 | 0 | 0.0 | 0.0 | 0.00 | 0.00 | 0.00 | 79 | 1012.3 |
| 20260902013711 | 83 | 0 | 0.0 | 0.0 | 0.00 | 0.00 | 0.00 | 79 | 1012.1 |
| 20260902012938 | 83 | 0 | 0.0 | 0.0 | 0.00 | 0.00 | 0.00 | 79 | 1012.0 |
| 20260902012436 | 83 | 0 | 0.0 | 0.0 | 0.00 | 0.00 | 0.00 | 79 | 1012.0 |
| 20260902011937 | 83 | 0 | 0.0 | 0.0 | 0.00 | 0.00 | 0.00 | 79 | 1012.0 |
| 20260902011703 | 83 | 0 | 0.0 | 0.0 | 0.00 | 0.00 | 0.00 | 79 | 1012.0 |
| 20260902010925 | 83 | 0 | 0.0 | 0.0 | 0.00 | 0.00 | 0.00 | 79 | 1012.0 |
| 20260902010425 | 83 | 0 | 0.0 | 0.0 | 0.00 | 0.00 | 0.00 | 79 | 1012.0 |
| 20260902005926 | 83 | 0 | 0.0 | 0.0 | 0.00 | 0.00 | 0.00 | 79 | 1012.0 |
| 20260902005421 | 83 | 0 | 0.0 | 3.0 | 0.00 | 0.00 | 0.00 | 79 | 1012.0 |
| 20260902004921 | 83 | 0 | 0.0 | 3.0 | 0.00 | 0.00 | 0.00 | 79 | 1012.1 |
| 20260902004652 | 83 | 0 | 0.0 | 3.0 | 0.00 | 0.00 | 0.00 | 79 | 1012.2 |
| 20260902003917 | 83 | 0 | 0.0 | 3.0 | 0.00 | 0.00 | 0.00 | 79 | 1012.3 |
| 20260902003645 | 84 | 0 | 0.0 | 2.0 | 0.00 | 0.00 | 0.00 | 79 | 1012.3 |
| 20260902002914 | 84 | 0 | 0.0 | 2.0 | 0.00 | 0.00 | 0.00 | 79 | 1012.3 |
| 20260902002416 | 84 | 0 | 0.0 | 2.0 | 0.00 | 0.00 | 0.00 | 79 | 1012.2 |
| 20260902001914 | 84 | 0 | 0.0 | 2.0 | 0.00 | 0.00 | 0.00 | 79 | 1012.2 |
| 20260902001411 | 84 | 0 | 1.0 | 4.0 | 0.00 | 0.00 | 0.00 | 79 | 1012.2 |
| 20260902000911 | 84 | 0 | 1.0 | 4.0 | 0.00 | 0.00 | 0.00 | 79 | 1012.2 |
| 20260902000410 | 84 | 0 | 1.0 | 4.0 | 0.00 | 0.00 | 0.00 | 79 | 1012.2 |
| 20260901235909 | 84 | 0 | 1.0 | 4.0 | 0.00 | 0.00 | 0.00 | 79 | 1012.1 |
| 20260901235639 | 84 | 0 | 1.0 | 5.0 | 0.00 | 0.00 | 0.00 | 79 | 1012.1 |
| 20260901234907 | 85 | 0 | 1.0 | 5.0 | 0.00 | 0.00 | 0.00 | 79 | 1012.1 |
| 20260901234409 | 85 | 0 | 2.0 | 5.0 | 0.00 | 0.00 | 0.00 | 79 | 1012.1 |
| 20260901233907 | 85 | 0 | 2.0 | 10.0 | 0.00 | 0.00 | 0.00 | 79 | 1012.1 |
| 20260901233407 | 85 | 0 | 2.0 | 10.0 | 0.00 | 0.00 | 0.00 | 79 | 1012.2 |
| 20260901232909 | 85 | 0 | 1.0 | 6.0 | 0.00 | 0.00 | 0.00 | 80 | 1012.2 |
| 20260901232406 | 85 | 0 | 1.0 | 5.0 | 0.00 | 0.00 | 0.00 | 79 | 1012.3 |
| 20260901231906 | 85 | 0 | 2.0 | 5.0 | 0.00 | 0.00 | 0.00 | 79 | 1012.3 |
| 20260901231406 | 86 | 0 | 2.0 | 9.0 | 0.00 | 0.00 | 0.00 | 79 | 1012.4 |
| 20260901231134 | 86 | 0 | 1.0 | 9.0 | 0.00 | 0.00 | 0.00 | 79 | 1012.5 |
| 20260901230633 | 86 | 0 | 2.0 | 9.0 | 0.00 | 0.00 | 0.00 | 79 | 1012.5 |
| 20260901225904 | 87 | 0 | 3.0 | 9.0 | 0.00 | 0.00 | 0.00 | 79 | 1012.6 |
| 20260901225403 | 87 | 0 | 2.0 | 9.0 | 0.00 | 0.00 | 0.00 | 79 | 1012.7 |
| 20260901224903 | 87 | 0 | 2.0 | 5.0 | 0.00 | 0.00 | 0.00 | 79 | 1012.6 |
| 20260901224402 | 87 | 5 | 1.0 | 5.0 | 0.00 | 0.00 | 0.00 | 79 | 1012.6 |
| 20260901223901 | 87 | 13 | 0.0 | 3.0 | 0.00 | 0.00 | 0.00 | 78 | 1012.6 |
| 20260901223403 | 87 | 331 | 0.0 | 2.0 | 0.00 | 0.00 | 0.00 | 78 | 1012.5 |
| 20260901222903 | 87 | 331 | 0.0 | 4.0 | 0.00 | 0.00 | 0.00 | 78 | 1012.4 |
| 20260901222401 | 87 | 5 | 0.0 | 4.0 | 0.00 | 0.00 | 0.00 | 78 | 1012.4 |
| 20260901221901 | 87 | 5 | 1.0 | 4.0 | 0.00 | 0.00 | 0.00 | 78 | 1012.4 |
| 20260901221401 | 87 | 5 | 1.0 | 4.0 | 0.00 | 0.00 | 0.00 | 78 | 1012.4 |
| 20260901220905 | 87 | 310 | 0.0 | 2.0 | 0.00 | 0.00 | 0.00 | 77 | 1012.4 |
| 20260901220358 | 86 | 310 | 0.0 | 1.0 | 0.00 | 0.00 | 0.00 | 77 | 1012.5 |
| 20260901215858 | 86 | 310 | 0.0 | 1.0 | 0.00 | 0.00 | 0.00 | 77 | 1012.5 |
| 20260901215357 | 86 | 310 | 0.0 | 3.0 | 0.00 | 0.00 | 0.00 | 77 | 1012.7 |
| 20260901214858 | 86 | 310 | 0.0 | 3.0 | 0.00 | 0.00 | 0.00 | 76 | 1012.7 |
| 20260901214403 | 86 | 311 | 0.0 | 1.0 | 0.00 | 0.00 | 0.00 | 76 | 1013.0 |
| 20260901214359 | 86 | 310 | 0.0 | 3.0 | 0.00 | 0.00 | 0.00 | 76 | 1012.9 |
| 20260901213358 | 86 | 311 | 0.0 | 1.0 | 0.00 | 0.00 | 0.00 | 76 | 1013.0 |
| 20260901212857 | 86 | 311 | 0.0 | 1.0 | 0.00 | 0.00 | 0.00 | 75 | 1013.1 |
| 20260901212358 | 86 | 311 | 0.0 | 1.0 | 0.00 | 0.00 | 0.00 | 76 | 1013.0 |
| 20260901211857 | 86 | 311 | 0.0 | 2.0 | 0.00 | 0.00 | 0.00 | 75 | 1012.9 |
| 20260901211357 | 86 | 311 | 0.0 | 2.0 | 0.00 | 0.00 | 0.00 | 75 | 1012.9 |
| 20260901211126 | 86 | 311 | 0.0 | 3.0 | 0.00 | 0.00 | 0.00 | 76 | 1012.9 |
| 20260901210353 | 86 | 311 | 0.0 | 3.0 | 0.00 | 0.00 | 0.00 | 76 | 1012.8 |
| 20260901205855 | 85 | 311 | 0.0 | 2.0 | 0.00 | 0.00 | 0.00 | 76 | 1012.8 |
| 20260901205624 | 85 | 312 | 0.0 | 3.0 | 0.00 | 0.00 | 0.00 | 76 | 1012.8 |
| 20260901204855 | 85 | 312 | 0.0 | 3.0 | 0.00 | 0.00 | 0.00 | 76 | 1012.7 |
| 20260901204354 | 85 | 312 | 0.0 | 3.0 | 0.00 | 0.00 | 0.00 | 77 | 1012.7 |
| 20260901203857 | 85 | 312 | 1.0 | 3.0 | 0.00 | 0.00 | 0.00 | 77 | 1012.7 |
| 20260901203351 | 85 | 311 | 0.0 | 2.0 | 0.00 | 0.00 | 0.00 | 77 | 1012.7 |
| 20260901202849 | 85 | 323 | 0.0 | 3.0 | 0.00 | 0.00 | 0.00 | 78 | 1012.8 |
| 20260901202350 | 85 | 323 | 0.0 | 3.0 | 0.00 | 0.00 | 0.00 | 78 | 1013.0 |
| 20260901201851 | 86 | 323 | 1.0 | 3.0 | 0.00 | 0.00 | 0.00 | 77 | 1013.1 |
| 20260901201350 | 86 | 321 | 1.0 | 3.0 | 0.00 | 0.00 | 0.00 | 77 | 1013.2 |
| 20260901200847 | 86 | 310 | 1.0 | 3.0 | 0.00 | 0.00 | 0.00 | 77 | 1013.4 |
| 20260901200348 | 86 | 11 | 0.0 | 2.0 | 0.00 | 0.00 | 0.00 | 77 | 1013.6 |
| 20260901195847 | 86 | 11 | 0.0 | 2.0 | 0.00 | 0.00 | 0.00 | 77 | 1013.7 |
| 20260901195349 | 86 | 11 | 1.0 | 3.0 | 0.00 | 0.00 | 0.00 | 77 | 1013.9 |
| 20260901194847 | 86 | 11 | 1.0 | 3.0 | 0.00 | 0.00 | 0.00 | 77 | 1014.0 |